Skip Page Navigation
NASA JPL Caltech
NASA Logo - Jet Propulsion Laboratory + View the NASA Portal
+ Center for Near-Earth Object Studies
JPL Home Earth Solar System Stars & Galaxies Technology
JPL Solar System Dynamics
BODIES ORBITS EPHEMERIDES TOOLS PHYSICAL DATA DISCOVERY FAQ SITE MAP
IMPORTANT: The SSD Announcement email list is now available. Major changes are coming in the near future, including possible hostname and/or URL changes. To be notified of such changes, subscribe to this email list.

Please visit this page for more details.


JPL Small-Body Database Browser
Search: [ help ]  
85966 (1999 FD62)
Classification: Main-belt Asteroid          SPK-ID: 2085966
Ephemeris | Orbit Diagram | Orbital Elements | Mission Design | Physical Parameters | Discovery Circumstances ]

[ show orbit diagram ]
Orbital Elements at Epoch 2458600.5 (2019-Apr-27.0) TDB
Reference: JPL 19 (heliocentric ecliptic J2000)
 Element Value Uncertainty (1-sigma)   Units 
e .1175709976926629 3.4651e-08  
a 2.332751033295857 1.1314e-08 au
q 2.058487166942673 8.368e-08 au
i 10.976416787662 4.8382e-06 deg
node 160.9098305749742 2.1926e-05 deg
peri 285.0487073025694 3.1662e-05 deg
M 315.1186635414983 2.2252e-05 deg
tp 2458762.742374005755
(2019-Oct-06.24237401)
8.068e-05 TDB
period 1301.370664308901
3.56
9.4676e-06
2.592e-08
d
yr
n .2766314086165294 2.0125e-09 deg/d
Q 2.607014899649041 1.2644e-08 au
  Orbit Determination Parameters
   # obs. used (total)      966  
   data-arc span      9298 days (25.46 yr)  
   first obs. used      1993-05-23  
   last obs. used      2018-11-06  
   planetary ephem.      DE431  
   SB-pert. ephem.      SB431-N16  
   condition code      0  
   norm. resid. RMS      .53593  
   source      ORB  
   producer      Otto Matic  
   solution date      2019-Jul-13 11:48:37  

Additional Information
 Earth MOID = 1.10589 au 
 Jupiter MOID = 2.5898 au 
 T_jup = 3.536 
[ show covariance matrix ]

Ephemeris | Orbit Diagram | Orbital Elements | Mission Design | Physical Parameters | Discovery Circumstances ]

Physical Parameter Table
Parameter Symbol Value Units Sigma Reference Notes
absolute magnitude H 15.2   n/a MPO359343  
diameter diameter 3.703 km 0.111 urn:nasa:pds:neowise_diameters_albedos::2.0[mainbelt] (http://adsabs.harvard.edu/abs/2011ApJ...741...68M)  
geometric albedo albedo 0.117   0.026 urn:nasa:pds:neowise_diameters_albedos::2.0[mainbelt] (http://adsabs.harvard.edu/abs/2011ApJ...741...68M)  

85966 (1999 FD62)          Discovered 1999-Mar-22 by LONEOS at Anderson Mesa
Reference: 20040830/Numbers.arcLast Updated: 2004-09-06

Alternate Designations
 1999 FD62 = 2003 KD11 
Ephemeris | Orbit Diagram | Orbital Elements | Mission Design | Physical Parameters | Discovery Circumstances ]
ABOUT SSD CREDITS/AWARDS PRIVACY/COPYRIGHT GLOSSARY LINKS
FirstGov
(server date/time)  
NASA Home Page
Site Manager:   Ryan S. Park
Webmaster  Alan B. Chamberlin